Location: Arrington
(35.8681°N, 86.7092°W)
Time: 22:37:53
(UTC+00:00)

ATLAS 2AS CENTAUR R/B - Visible Passes

Search period start: 21 February 2020 00:00
Search period end: 02 March 2020 00:00
Orbit: 929 x 1283 km, 63.7° (Epoch: 08 February)

Date Brightness Start Highest point End Pass type
(mag) Time Alt. Az. Time Alt. Az. Time Alt. Az.
21 Feb 5.3 10:19:16 10° N 10:21:31 11° NNE 10:23:43 10° NE visible
22 Feb 4.6 11:23:15 10° NNW 11:29:34 28° NE 11:35:27 10° E visible
23 Feb 5.0 10:38:53 10° N 10:44:07 20° NE 10:49:04 10° E visible
24 Feb 5.3 09:54:50 10° N 09:58:28 14° NNE 10:01:59 10° ENE visible
24 Feb 3.6 11:44:02 10° NNW 11:51:22 54° NE 11:58:00 10° SE visible
25 Feb 4.3 10:59:26 10° NNW 11:06:13 35° NE 11:12:28 10° ESE visible
26 Feb 4.7 00:51:03 10° SE 00:51:25 11° SE 00:51:25 11° SE visible
26 Feb 4.6 02:36:50 10° SSW 02:38:59 21° SSW 02:38:59 21° SSW visible
26 Feb 4.8 10:14:58 10° N 10:20:53 24° NE 10:26:26 10° E visible
27 Feb 3.5 01:52:25 10° S 01:57:39 41° SSE 01:57:39 41° SSE visible
27 Feb 5.2 03:44:02 10° WSW 03:45:16 15° WSW 03:45:16 15° WSW visible
27 Feb 5.1 09:30:43 10° N 09:35:21 17° NE 09:39:47 10° ENE visible
27 Feb 3.1 11:20:22 10° NNW 11:27:49 70° ENE 11:34:35 10° SE visible
28 Feb 3.6 01:08:35 10° S 01:15:23 33° ESE 01:16:36 32° E visible
28 Feb 3.8 02:58:23 10° SW 03:04:14 45° W 03:04:14 45° W visible
28 Feb 5.4 08:46:54 10° N 08:49:37 12° NNE 08:52:16 10° NE visible
28 Feb 3.8 10:35:40 10° NNW 10:42:48 45° NE 10:49:19 10° ESE visible
29 Feb 4.1 00:25:36 10° SSE 00:30:56 20° ESE 00:35:50 11° ENE visible
29 Feb 3.0 02:13:12 10° SW 02:21:05 80° WNW 02:23:29 50° NNE visible
29 Feb 5.1 04:07:38 10° W 04:11:08 19° WNW 04:11:08 19° WNW visible
29 Feb 4.4 09:51:07 10° NNW 09:57:35 30° NE 10:03:34 10° ESE visible
29 Feb 2.9 11:41:46 10° NW 11:48:57 57° WSW 11:55:29 10° SSE visible
01 Mar 2.9 01:28:29 10° SSW 01:36:16 69° ESE 01:43:01 15° NE visible
01 Mar 4.5 03:21:08 10° WSW 03:27:54 29° NW 03:30:41 24° NNW visible
01 Mar 4.9 09:06:43 10° N 09:12:10 21° NE 09:17:18 10° E visible
01 Mar 2.8 10:56:46 10° NNW 11:04:13 89° NE 11:10:59 10° SSE visible
